[[{"header":{"parameterUnit":"m.s-1","parameterCategory":2,"la1":30.2991,"la2":30.254,"lo1":-89.0895,"lo2":-89.0444,"dy":0.0017,"dx":0.0017,"nx":28,"ny":28,"refTime":"2025-12-14T03:00:00:Z","depth":"0","parameterNumber":2,"parameterNumberName":"U-component_of_CURRENTS"},"data":[0,0,0,0,0,0,0,0,0,0,0,0,0,0,0,0,0,0,0,0,0,0,0,0,0,0,0,0,0,0,0,0,0,0,0,0,0,0,0,0,0,0,0,0,0,0,0,0,0,0,0,0,0,0,0,0,0,0,-0.2765,-0.2765,0,-0.2756,-0.2755,-0.2755,-0.2731,-0.2731,-0.2731,-0.273,-0.2697,-0.2696,-0.2696,0,0,0,0,0,0,0,0,0,0,0,0,0,-0.2773,-0.2773,-0.2765,-0.2765,-0.2766,-0.2756,-0.2755,-0.2755,-0.2731,-0.2731,-0.273,-0.273,-0.2697,-0.2696,-0.2695,0,0,0,0,0,0,0,0,0,0,0,0,0,-0.2765,-0.2773,-0.2765,-0.2755,-0.2754,-0.2756,-0.2755,-0.2755,-0.2731,-0.2731,-0.273,-0.273,-0.2697,-0.2696,-0.2695,-0.2697,0,0,-0.2692,-0.2692,0,0,0,0,0,0,0,0,-0.2765,-0.2764,-0.2756,-0.2755,-0.2754,-0.2747,-0.2746,-0.2735,-0.2731,-0.2737,-0.273,-0.273,-0.2713,-0.2711,-0.2706,-0.2695,-0.2694,-0.2692,-0.2692,-0.2691,-0.2691,0,0,0,0,0,0,0,-0.2766,-0.2765,-0.2759,-0.2756,-0.2755,-0.2754,-0.2752,-0.2744,-0.2725,-0.2736,-0.2735,-0.2739,-0.2712,-0.2707,-0.2705,-0.2693,-0.2692,-0.2691,-0.2691,-0.269,-0.2687,-0.2688,0,0,0,0,0,0,-0.2773,-0.2765,-0.2759,-0.2759,-0.2762,-0.2754,-0.2752,-0.2747,-0.2725,-0.2722,-0.2739,-0.2738,-0.2709,-0.2707,-0.2704,-0.2704,-0.2691,-0.269,-0.269,-0.2687,-0.2687,-0.2688,0,0,0,0,0,0,-0.2773,-0.2772,-0.2759,-0.2764,-0.2763,-0.2755,-0.275,-0.2747,-0.274,-0.2728,-0.2724,-0.2735,-0.2709,-0.2706,-0.2699,-0.2703,-0.269,-0.2689,-0.2686,-0.2687,-0.2688,-0.2704,0,0,0,0,0,0,-0.2773,-0.2772,-0.2764,-0.2765,-0.2763,-0.2757,-0.275,-0.2747,-0.2745,-0.2743,-0.2723,-0.272,-0.2708,-0.27,-0.2698,-0.2701,-0.2688,-0.2686,-0.2687,-0.2688,-0.2703,-0.2705,-0.2707,0,0,0,0,0,-0.2773,-0.276,-0.2763,-0.2763,-0.2755,-0.2757,-0.2756,-0.2747,-0.2745,-0.274,-0.2732,-0.272,-0.2705,-0.27,-0.2697,-0.27,-0.2685,-0.2686,-0.2687,-0.2702,-0.2705,-0.2707,0,0,0,0,0,0,-0.2746,-0.2756,-0.276,-0.2747,-0.2754,-0.2754,-0.2746,-0.2749,-0.2739,-0.2735,-0.2724,-0.272,-0.2717,-0.2709,-0.2704,-0.2703,-0.2694,-0.2695,-0.2706,-0.2709,-0.2711,-0.2712,-0.2687,0,0,0,0,0,-0.2743,-0.2739,-0.2752,-0.2739,-0.2745,-0.2748,-0.2747,-0.2747,-0.2744,-0.2738,-0.2729,-0.2722,-0.272,-0.2714,-0.2708,-0.2706,-0.2697,-0.2707,-0.271,-0.2712,-0.2711,-0.2714,-0.2717,-0.2692,-0.2692,-0.2692,0,0,-0.2727,-0.2733,-0.2729,-0.2735,-0.2737,-0.2746,-0.2745,-0.2744,-0.275,-0.2737,-0.2731,-0.2728,-0.2722,-0.272,-0.2718,-0.2712,-0.2712,-0.2713,-0.2715,-0.2713,-0.2716,-0.2718,-0.272,-0.2693,-0.2692,-0.2692,0,0,-0.2706,-0.2704,-0.2702,-0.2714,-0.2727,-0.2734,-0.2737,-0.2744,-0.2743,-0.2744,-0.2741,-0.2742,-0.2731,-0.2732,-0.2732,-0.2745,-0.2726,-0.2742,-0.275,-0.2753,-0.2755,-0.2756,-0.2739,-0.2739,-0.2741,-0.2741,-0.2741,0,-0.269,-0.2688,-0.27,-0.2709,-0.2718,-0.2732,-0.2739,-0.2745,-0.2747,-0.2752,-0.2743,-0.2746,-0.2739,-0.275,-0.2753,-0.2749,-0.2739,-0.2738,-0.2755,-0.2757,-0.2758,-0.274,-0.2739,-0.2742,-0.2741,-0.2741,-0.2741,0,-0.2675,-0.2679,-0.2678,-0.2699,-0.271,-0.2714,-0.2738,-0.2745,-0.2749,-0.2757,-0.2765,-0.2761,-0.2764,-0.2764,-0.2759,-0.277,-0.2755,-0.2759,-0.2747,-0.2762,-0.2741,-0.274,-0.2743,-0.2743,-0.2742,-0.2742,0,0,-0.2626,-0.2663,-0.2662,-0.2676,-0.2706,-0.2713,-0.2734,-0.2755,-0.2768,-0.2771,-0.2783,-0.2786,-0.2786,-0.2787,-0.2786,-0.2786,-0.2784,-0.2774,-0.2774,-0.2753,-0.2772,-0.2728,-0.2723,-0.2788,-0.2789,-0.2789,-0.275,0,-0.2611,-0.2625,-0.2651,-0.2666,-0.2676,-0.271,-0.2729,-0.2753,-0.2769,-0.2783,-0.2794,-0.28,-0.2796,-0.2795,-0.2799,-0.2791,-0.2784,-0.2793,-0.2764,-0.2763,-0.272,-0.2722,-0.2674,-0.2632,-0.2749,-0.2749,-0.2749,0,-0.2585,-0.2601,-0.2612,-0.2657,-0.2665,-0.2677,-0.2714,-0.2735,-0.2772,-0.2786,-0.2804,-0.2812,-0.2821,-0.2813,-0.2806,-0.281,-0.279,-0.278,-0.2778,-0.2732,-0.2718,-0.2639,-0.2627,-0.2599,-0.2748,-0.2748,-0.2748,0,-0.2534,-0.2572,-0.2579,-0.2592,-0.2643,-0.2655,-0.2681,-0.2724,-0.2749,-0.2784,-0.2803,-0.2818,-0.2824,-0.2813,-0.2799,-0.2799,-0.2783,-0.2782,-0.2722,-0.2718,-0.2668,-0.2659,-0.2623,-0.2771,-0.2771,-0.2771,-0.2771,0,-0.2499,-0.2502,-0.2553,-0.2554,-0.2569,-0.2618,-0.2639,-0.2674,-0.2726,-0.2754,-0.2794,-0.2818,-0.2825,-0.2824,-0.2801,-0.2757,-0.2785,-0.2718,-0.2707,-0.267,-0.2662,-0.2629,-0.2626,-0.2769,-0.277,-0.277,-0.277,0,-0.243,-0.2464,-0.2477,-0.2527,-0.2541,-0.2548,-0.2612,-0.2628,-0.2691,-0.2731,-0.2743,-0.2809,-0.2805,-0.2801,-0.2782,-0.2754,-0.2669,-0.2697,-0.2642,-0.2625,-0.253,-0.2529,-0.2423,-0.2367,-0.2614,-0.2612,-0.2611,0,-0.2392,-0.2388,-0.2439,-0.2442,-0.2459,-0.2486,-0.2503,-0.2587,-0.2616,-0.2724,-0.2735,-0.2768,-0.2777,-0.2739,-0.2705,-0.2649,-0.2609,-0.2558,-0.2551,-0.2512,-0.2504,-0.2461,-0.2419,-0.2486,-0.2484,-0.2482,-0.2481,0,-0.2311,-0.2329,-0.2337,-0.2354,-0.2368,-0.2395,-0.2433,-0.2464,-0.2567,-0.2629,-0.2697,-0.2719,-0.2714,-0.2657,-0.2596,-0.255,-0.2488,-0.252,-0.2503,-0.2415,-0.2343,-0.2289,-0.2515,-0.2466,-0.2468,-0.2469,-0.2469,-0.247,-0.2233,-0.2225,-0.2236,-0.2242,-0.2263,-0.2277,-0.227,-0.2363,-0.2423,-0.253,-0.2606,-0.2681,-0.2638,-0.2556,-0.2484,-0.238,-0.2377,-0.2321,-0.2325,-0.2286,-0.2223,-0.2403,-0.2332,-0.2333,-0.2334,-0.2334,-0.2335,0,-0.2124,-0.2121,-0.2122,-0.2127,-0.2108,-0.2157,-0.2194,-0.2201,-0.2263,-0.2452,-0.2528,-0.2636,-0.2527,-0.248,-0.2365,-0.2237,-0.2158,-0.2159,-0.2105,-0.2074,-0.2257,-0.2245,-0.2125,-0.2125,-0.2125,-0.2125,-0.2125,-0.2125,-0.2063,-0.2016,-0.2021,-0.1953,-0.1958,-0.1908,-0.1903,-0.1974,-0.2091,-0.2294,-0.2484,-0.2647,-0.2608,-0.2507,-0.2293,-0.2173,-0.2049,-0.1965,-0.195,-0.2119,-0.2135,-0.215,-0.2138,-0.1997,-0.1997,-0.1723,-0.1721,-0.172]},{"header":{"parameterUnit":"m.s-1","parameterCategory":2,"la1":30.2991,"la2":30.254,"lo1":-89.0895,"lo2":-89.0444,"dy":0.0017,"dx":0.0017,"nx":28,"ny":28,"refTime":"2025-12-14T03:00:00:Z","depth":"0","parameterNumber":3,"parameterNumberName":"V-component_of_CURRENTS"},"data":[0,0,0,0,0,0,0,0,0,0,0,0,0,0,0,0,0,0,0,0,0,0,0,0,0,0,0,0,0,0,0,0,0,0,0,0,0,0,0,0,0,0,0,0,0,0,0,0,0,0,0,0,0,0,0,0,0,0,-0.062,-0.062,0,-0.0583,-0.0583,-0.0583,-0.056,-0.056,-0.056,-0.056,-0.0489,-0.0488,-0.0486,0,0,0,0,0,0,0,0,0,0,0,0,0,-0.0646,-0.0646,-0.062,-0.062,-0.0619,-0.0583,-0.0583,-0.0582,-0.056,-0.056,-0.056,-0.056,-0.049,-0.0488,-0.0486,0,0,0,0,0,0,0,0,0,0,0,0,0,-0.0625,-0.0646,-0.062,-0.0604,-0.0602,-0.0584,-0.0583,-0.0582,-0.056,-0.056,-0.056,-0.056,-0.0491,-0.0488,-0.0486,-0.0473,0,0,-0.0477,-0.0476,0,0,0,0,0,0,0,0,-0.0626,-0.0624,-0.0607,-0.0605,-0.0603,-0.0576,-0.0566,-0.0544,-0.056,-0.0576,-0.056,-0.056,-0.0515,-0.0511,-0.0505,-0.047,-0.0467,-0.0477,-0.0476,-0.0474,-0.0474,0,0,0,0,0,0,0,-0.0627,-0.0625,-0.0606,-0.0606,-0.0604,-0.0589,-0.0587,-0.0562,-0.0547,-0.0575,-0.0573,-0.0569,-0.0514,-0.0508,-0.0503,-0.0466,-0.0477,-0.0475,-0.0473,-0.0472,-0.0409,-0.0409,0,0,0,0,0,0,-0.0633,-0.0627,-0.0607,-0.0605,-0.0614,-0.0589,-0.0586,-0.0585,-0.0548,-0.0542,-0.0569,-0.0568,-0.0512,-0.0506,-0.05,-0.0486,-0.0474,-0.0472,-0.047,-0.0409,-0.0409,-0.0409,0,0,0,0,0,0,-0.0634,-0.0632,-0.0608,-0.0614,-0.061,-0.0589,-0.0588,-0.0584,-0.0578,-0.0544,-0.0537,-0.0567,-0.0512,-0.0504,-0.0482,-0.0483,-0.0471,-0.0468,-0.041,-0.0409,-0.0409,-0.0455,0,0,0,0,0,0,-0.0635,-0.0633,-0.0636,-0.0615,-0.061,-0.0602,-0.0588,-0.0584,-0.0575,-0.0574,-0.0539,-0.0533,-0.0511,-0.0486,-0.048,-0.0479,-0.0466,-0.041,-0.041,-0.0409,-0.0454,-0.0457,-0.0459,0,0,0,0,0,-0.0636,-0.0642,-0.0637,-0.0634,-0.0615,-0.0602,-0.0599,-0.0583,-0.0576,-0.0576,-0.0553,-0.0534,-0.048,-0.0484,-0.0476,-0.0475,-0.041,-0.041,-0.0409,-0.0453,-0.0456,-0.0459,0,0,0,0,0,0,-0.0654,-0.064,-0.0633,-0.0635,-0.0622,-0.0599,-0.0598,-0.0586,-0.0568,-0.0566,-0.0534,-0.0526,-0.0507,-0.0483,-0.0489,-0.0456,-0.0441,-0.0439,-0.0477,-0.048,-0.0482,-0.0491,-0.0464,0,0,0,0,0,-0.0661,-0.0663,-0.0644,-0.0646,-0.064,-0.062,-0.0613,-0.0602,-0.0583,-0.0575,-0.0551,-0.0523,-0.05,-0.0485,-0.0462,-0.0443,-0.0412,-0.0436,-0.0438,-0.0441,-0.0442,-0.0397,-0.0396,-0.0409,-0.0409,-0.0409,0,0,-0.0668,-0.0661,-0.0661,-0.065,-0.0638,-0.0639,-0.0615,-0.0609,-0.0607,-0.057,-0.056,-0.0533,-0.0498,-0.048,-0.0469,-0.046,-0.0421,-0.0441,-0.0443,-0.0442,-0.0397,-0.0396,-0.0394,-0.0409,-0.0409,-0.0409,0,0,-0.0688,-0.0677,-0.0688,-0.0681,-0.0668,-0.0654,-0.0654,-0.0633,-0.0621,-0.0608,-0.0581,-0.0555,-0.052,-0.0494,-0.0477,-0.0478,-0.0439,-0.047,-0.0487,-0.0444,-0.0442,-0.0441,-0.0403,-0.0398,-0.0468,-0.0468,-0.0468,0,-0.0699,-0.071,-0.0689,-0.0698,-0.0697,-0.0665,-0.0677,-0.0659,-0.0633,-0.0622,-0.0611,-0.0555,-0.0527,-0.0498,-0.05,-0.0484,-0.0455,-0.048,-0.0448,-0.0445,-0.0443,-0.0404,-0.0398,-0.047,-0.047,-0.047,-0.047,0,-0.0729,-0.0737,-0.0742,-0.0744,-0.0738,-0.0742,-0.0717,-0.0706,-0.0686,-0.0663,-0.0631,-0.0589,-0.0555,-0.054,-0.0521,-0.0491,-0.0474,-0.046,-0.0443,-0.0445,-0.0404,-0.0396,-0.0473,-0.0473,-0.0472,-0.0471,0,0,-0.0758,-0.0764,-0.0766,-0.078,-0.0765,-0.0767,-0.0758,-0.074,-0.0733,-0.0694,-0.0677,-0.0631,-0.0601,-0.0578,-0.0544,-0.0505,-0.0465,-0.0479,-0.0476,-0.0447,-0.0371,-0.0344,-0.0333,-0.0445,-0.0444,-0.0443,-0.0351,0,-0.079,-0.0825,-0.0812,-0.0841,-0.0857,-0.0826,-0.082,-0.0797,-0.0766,-0.0738,-0.0677,-0.0649,-0.0616,-0.06,-0.0555,-0.0487,-0.0447,-0.0491,-0.0369,-0.0365,-0.0344,-0.0323,-0.0372,-0.0293,-0.0343,-0.0342,-0.0341,0,-0.0828,-0.0847,-0.0884,-0.0897,-0.0899,-0.0905,-0.0892,-0.0882,-0.0826,-0.0799,-0.0749,-0.0699,-0.0635,-0.0609,-0.0489,-0.0519,-0.0452,-0.0396,-0.0391,-0.0344,-0.0323,-0.0297,-0.0277,-0.023,-0.0329,-0.033,-0.0331,0,-0.0873,-0.0897,-0.0932,-0.0938,-0.0941,-0.0947,-0.0941,-0.0902,-0.0895,-0.0834,-0.0815,-0.0728,-0.0684,-0.0587,-0.0468,-0.0479,-0.0329,-0.0329,-0.0239,-0.0236,-0.0242,-0.0242,-0.0167,-0.0244,-0.0244,-0.0244,-0.0245,0,-0.0921,-0.0947,-0.0958,-0.098,-0.1016,-0.0994,-0.1012,-0.0989,-0.095,-0.0941,-0.0852,-0.0818,-0.0676,-0.0572,-0.047,-0.0322,-0.0326,-0.0234,-0.0206,-0.0259,-0.0262,-0.0192,-0.0148,-0.0241,-0.0242,-0.0242,-0.0243,0,-0.0971,-0.0975,-0.102,-0.1036,-0.1043,-0.107,-0.1074,-0.1081,-0.103,-0.1013,-0.0995,-0.0878,-0.0734,-0.058,-0.0411,-0.0326,-0.0148,-0.0138,-0.0209,-0.0191,-0.0078,-0.0035,0.0143,0.0156,-0.0034,-0.0032,-0.0031,0,-0.1001,-0.103,-0.1073,-0.1105,-0.1117,-0.1146,-0.1164,-0.1131,-0.1133,-0.1051,-0.1045,-0.0899,-0.0803,-0.0531,-0.0343,-0.0143,-0.008,-0.0074,-0.0103,-0.0068,0.0001,0.0057,0.0057,-0.0131,-0.0131,-0.013,-0.013,0,-0.1058,-0.1071,-0.1108,-0.118,-0.1216,-0.1255,-0.1273,-0.1287,-0.1237,-0.1205,-0.1129,-0.1042,-0.0768,-0.0568,-0.0294,-0.0174,-0.0045,-0.0065,-0.0011,-0.0047,0.0003,0.0025,-0.0197,-0.0129,-0.0129,-0.0129,-0.0129,-0.0129,-0.1093,-0.1137,-0.1188,-0.1253,-0.1303,-0.1354,-0.1392,-0.1396,-0.1397,-0.1347,-0.1221,-0.1086,-0.0783,-0.0403,-0.0267,-0.0028,0.0009,0.0009,0.0066,0.0124,0.012,-0.0093,-0.0003,-0.0002,-0.0002,-0.0001,-0.0001,0,-0.1139,-0.1187,-0.1257,-0.1337,-0.141,-0.1411,-0.1458,-0.1493,-0.151,-0.1418,-0.1328,-0.1,-0.0723,-0.0419,-0.0051,0.0072,0.0093,0.0135,0.0171,0.0167,-0.0021,-0.0046,0.0017,0.0017,0.0017,0.0017,0.0017,0.0017,-0.1163,-0.1241,-0.1281,-0.1409,-0.1467,-0.1554,-0.1585,-0.1627,-0.1591,-0.1482,-0.1294,-0.1129,-0.0662,-0.0064,0.0216,0.0234,0.0304,0.0326,0.0394,0.0218,0.0209,0.02,0.0183,0.0294,0.0294,0.0512,0.0514,0.0516]}],[{"header":{"parameterUnit":"m.s-1","parameterCategory":2,"la1":30.2991,"la2":30.254,"lo1":-89.0895,"lo2":-89.0444,"dy":0.0017,"dx":0.0017,"nx":28,"ny":28,"refTime":"2025-12-14T03:00:00:Z","depth":"2","parameterNumber":2,"parameterNumberName":"U-component_of_CURRENTS"},"data":[0,0,0,0,0,0,0,0,0,0,0,0,0,0,0,0,0,0,0,0,0,0,0,0,0,0,0,0,0,0,0,0,0,0,0,0,0,0,0,0,0,0,0,0,0,0,0,0,0,0,0,0,0,0,0,0,0,0,-0.2731,-0.2731,0,-0.2722,-0.2722,-0.2722,-0.2699,-0.2699,-0.2698,-0.2698,-0.2666,-0.2665,-0.2665,0,0,0,0,0,0,0,0,0,0,0,0,0,-0.2739,-0.2738,-0.2731,-0.2731,-0.2732,-0.2722,-0.2722,-0.2721,-0.2699,-0.2699,-0.2698,-0.2698,-0.2666,-0.2665,-0.2665,0,0,0,0,0,0,0,0,0,0,0,0,0,-0.273,-0.2738,-0.2731,-0.2721,-0.272,-0.2722,-0.2722,-0.2721,-0.2699,-0.2699,-0.2698,-0.2698,-0.2666,-0.2665,-0.2664,-0.2665,0,0,-0.2661,-0.2661,0,0,0,0,0,0,0,0,-0.2731,-0.273,-0.2723,-0.2722,-0.2721,-0.2714,-0.2713,-0.2702,-0.2699,-0.2704,-0.2698,-0.2698,-0.2682,-0.268,-0.2675,-0.2664,-0.2662,-0.2661,-0.2661,-0.266,-0.266,0,0,0,0,0,0,0,-0.2732,-0.273,-0.2725,-0.2723,-0.2722,-0.2721,-0.2719,-0.2711,-0.2692,-0.2704,-0.2703,-0.2706,-0.2681,-0.2676,-0.2674,-0.2662,-0.2661,-0.2661,-0.266,-0.266,-0.2657,-0.2658,0,0,0,0,0,0,-0.2738,-0.2731,-0.2725,-0.2725,-0.2728,-0.2721,-0.2719,-0.2714,-0.2693,-0.269,-0.2707,-0.2705,-0.2678,-0.2675,-0.2673,-0.2674,-0.266,-0.2659,-0.2659,-0.2657,-0.2657,-0.2658,0,0,0,0,0,0,-0.2738,-0.2737,-0.2726,-0.273,-0.2729,-0.2721,-0.2716,-0.2714,-0.2708,-0.2696,-0.2692,-0.2703,-0.2677,-0.2674,-0.2668,-0.2672,-0.2659,-0.2658,-0.2656,-0.2657,-0.2657,-0.2675,0,0,0,0,0,0,-0.2738,-0.2737,-0.273,-0.273,-0.2729,-0.2724,-0.2717,-0.2714,-0.2712,-0.271,-0.2692,-0.2689,-0.2677,-0.267,-0.2667,-0.2671,-0.2657,-0.2655,-0.2656,-0.2657,-0.2674,-0.2676,-0.2678,0,0,0,0,0,-0.2738,-0.2726,-0.2729,-0.2729,-0.2721,-0.2724,-0.2722,-0.2715,-0.2713,-0.2708,-0.2701,-0.2689,-0.2674,-0.2669,-0.2666,-0.2669,-0.2655,-0.2656,-0.2657,-0.2673,-0.2676,-0.2678,0,0,0,0,0,0,-0.2712,-0.2723,-0.2727,-0.2714,-0.2721,-0.2721,-0.2713,-0.2717,-0.2707,-0.2704,-0.2693,-0.2689,-0.2687,-0.2678,-0.2673,-0.2673,-0.2664,-0.2664,-0.2677,-0.2679,-0.2682,-0.2682,-0.2657,0,0,0,0,0,-0.2709,-0.2706,-0.2718,-0.2706,-0.2712,-0.2716,-0.2715,-0.2715,-0.2712,-0.2707,-0.2698,-0.2691,-0.269,-0.2684,-0.2678,-0.2676,-0.2667,-0.2678,-0.268,-0.2682,-0.2682,-0.2685,-0.2687,-0.2662,-0.2662,-0.2662,0,0,-0.2695,-0.27,-0.2696,-0.2702,-0.2705,-0.2714,-0.2713,-0.2713,-0.2719,-0.2706,-0.2701,-0.2697,-0.2692,-0.269,-0.2689,-0.2682,-0.2683,-0.2684,-0.2685,-0.2684,-0.2686,-0.2689,-0.2691,-0.2662,-0.2662,-0.2662,0,0,-0.2674,-0.2673,-0.2671,-0.2682,-0.2695,-0.2703,-0.2706,-0.2713,-0.2713,-0.2715,-0.2711,-0.2713,-0.2702,-0.2703,-0.2703,-0.2716,-0.2697,-0.2713,-0.2721,-0.2725,-0.2727,-0.2728,-0.2711,-0.2711,-0.2712,-0.2712,-0.2712,0,-0.2659,-0.2657,-0.2669,-0.2678,-0.2687,-0.2701,-0.2709,-0.2714,-0.2717,-0.2722,-0.2714,-0.2717,-0.271,-0.2721,-0.2724,-0.2721,-0.2711,-0.271,-0.2727,-0.2729,-0.273,-0.2712,-0.2712,-0.2713,-0.2713,-0.2713,-0.2713,0,-0.2645,-0.2649,-0.2648,-0.2669,-0.268,-0.2684,-0.2708,-0.2715,-0.272,-0.2728,-0.2737,-0.2733,-0.2735,-0.2736,-0.2731,-0.2742,-0.2728,-0.2731,-0.2719,-0.2734,-0.2714,-0.2713,-0.2714,-0.2714,-0.2714,-0.2713,0,0,-0.2597,-0.2633,-0.2632,-0.2646,-0.2677,-0.2683,-0.2704,-0.2725,-0.2739,-0.2742,-0.2755,-0.2758,-0.2759,-0.2759,-0.2758,-0.2759,-0.2757,-0.2746,-0.2746,-0.2726,-0.2746,-0.2702,-0.2697,-0.2762,-0.2762,-0.2762,-0.2724,0,-0.2582,-0.2596,-0.2622,-0.2636,-0.2646,-0.2681,-0.27,-0.2724,-0.274,-0.2755,-0.2765,-0.2772,-0.2768,-0.2768,-0.2772,-0.2764,-0.2758,-0.2766,-0.2737,-0.2736,-0.2693,-0.2696,-0.2446,-0.2388,-0.2724,-0.2723,-0.2723,0,-0.2557,-0.2573,-0.2584,-0.2628,-0.2636,-0.2648,-0.2685,-0.2706,-0.2743,-0.2758,-0.2776,-0.2784,-0.2794,-0.2786,-0.2779,-0.2783,-0.2763,-0.2754,-0.2752,-0.2705,-0.2691,-0.243,-0.2375,-0.2722,-0.2722,-0.2722,-0.2722,0,-0.2506,-0.2545,-0.2551,-0.2564,-0.2615,-0.2627,-0.2653,-0.2696,-0.272,-0.2756,-0.2775,-0.2791,-0.2797,-0.2787,-0.2773,-0.2773,-0.2758,-0.2757,-0.2696,-0.2692,-0.247,-0.2447,-0.2745,-0.2745,-0.2746,-0.2746,-0.2746,0,-0.2472,-0.2476,-0.2526,-0.2527,-0.2542,-0.2591,-0.2612,-0.2647,-0.2698,-0.2726,-0.2766,-0.2789,-0.2798,-0.2797,-0.2775,-0.2732,-0.2759,-0.2693,-0.2682,-0.2469,-0.2447,-0.2734,-0.2733,-0.2744,-0.2744,-0.2745,-0.2745,0,-0.2404,-0.2438,-0.2451,-0.2501,-0.2514,-0.2522,-0.2585,-0.2601,-0.2664,-0.2703,-0.2715,-0.2781,-0.2777,-0.2774,-0.2756,-0.2729,-0.2695,-0.2672,-0.2416,-0.2377,-0.2622,-0.2623,-0.2592,-0.259,-0.2589,-0.2587,-0.2586,0,-0.2367,-0.2363,-0.2414,-0.2417,-0.2433,-0.2461,-0.2477,-0.256,-0.2589,-0.2695,-0.2705,-0.2738,-0.2735,-0.2699,-0.2613,-0.2543,-0.2648,-0.2324,-0.2289,-0.2615,-0.2608,-0.2611,-0.2614,-0.1987,-0.1981,-0.1977,-0.1973,0,-0.2286,-0.2305,-0.2313,-0.2329,-0.2343,-0.237,-0.2407,-0.2436,-0.2538,-0.2585,-0.2651,-0.2661,-0.261,-0.2423,-0.2342,-0.2283,-0.2316,-0.2227,-0.2611,-0.2089,-0.2048,-0.2041,-0.2062,-0.193,-0.1934,-0.1937,-0.1939,-0.1941,-0.221,-0.2201,-0.2213,-0.2218,-0.2239,-0.2252,-0.2243,-0.2279,-0.2318,-0.2314,-0.2454,-0.2362,-0.2323,-0.2053,-0.196,-0.1886,-0.2061,-0.1973,-0.1986,-0.2004,-0.1965,-0.1926,-0.1775,-0.1779,-0.1781,-0.1784,-0.1786,0,-0.2091,-0.2099,-0.2099,-0.2103,-0.2068,-0.2133,-0.2167,-0.2096,-0.2068,-0.2072,-0.2052,-0.1812,-0.1668,-0.1658,-0.1455,-0.1451,-0.1408,-0.1416,-0.1336,-0.1379,-0.1418,-0.1348,-0.0995,-0.0993,-0.0991,-0.0989,0,0,-0.2028,-0.1976,-0.198,-0.1902,-0.1915,-0.1828,-0.1821,-0.173,-0.168,-0.1542,-0.147,-0.1504,-0.1584,-0.1256,-0.1198,-0.1069,-0.1215,-0.1016,-0.1644,-0.159,-0.1626,-0.1727,-0.1668,0,0,0,0,0]},{"header":{"parameterUnit":"m.s-1","parameterCategory":2,"la1":30.2991,"la2":30.254,"lo1":-89.0895,"lo2":-89.0444,"dy":0.0017,"dx":0.0017,"nx":28,"ny":28,"refTime":"2025-12-14T03:00:00:Z","depth":"2","parameterNumber":3,"parameterNumberName":"V-component_of_CURRENTS"},"data":[0,0,0,0,0,0,0,0,0,0,0,0,0,0,0,0,0,0,0,0,0,0,0,0,0,0,0,0,0,0,0,0,0,0,0,0,0,0,0,0,0,0,0,0,0,0,0,0,0,0,0,0,0,0,0,0,0,0,-0.0567,-0.0567,0,-0.053,-0.0529,-0.0529,-0.0507,-0.0507,-0.0507,-0.0507,-0.0436,-0.0435,-0.0433,0,0,0,0,0,0,0,0,0,0,0,0,0,-0.0593,-0.0593,-0.0567,-0.0567,-0.0566,-0.053,-0.0529,-0.0529,-0.0507,-0.0507,-0.0507,-0.0507,-0.0437,-0.0435,-0.0433,0,0,0,0,0,0,0,0,0,0,0,0,0,-0.0572,-0.0593,-0.0567,-0.0551,-0.0549,-0.053,-0.0529,-0.0529,-0.0507,-0.0507,-0.0507,-0.0507,-0.0438,-0.0435,-0.0432,-0.0419,0,0,-0.0424,-0.0423,0,0,0,0,0,0,0,0,-0.0573,-0.0571,-0.0554,-0.0552,-0.055,-0.0523,-0.0513,-0.049,-0.0507,-0.0523,-0.0507,-0.0507,-0.0462,-0.0458,-0.0451,-0.0415,-0.0412,-0.0424,-0.0422,-0.0421,-0.042,0,0,0,0,0,0,0,-0.0575,-0.0572,-0.0552,-0.0553,-0.0551,-0.0536,-0.0533,-0.0508,-0.0493,-0.0522,-0.052,-0.0516,-0.0461,-0.0454,-0.0449,-0.0411,-0.0424,-0.0422,-0.042,-0.0419,-0.0355,-0.0355,0,0,0,0,0,0,-0.0581,-0.0574,-0.0554,-0.0551,-0.0561,-0.0536,-0.0533,-0.0532,-0.0494,-0.0489,-0.0516,-0.0515,-0.0459,-0.0453,-0.0447,-0.0433,-0.0421,-0.0419,-0.0417,-0.0356,-0.0355,-0.0355,0,0,0,0,0,0,-0.0581,-0.0579,-0.0555,-0.0561,-0.0557,-0.0536,-0.0535,-0.0531,-0.0525,-0.049,-0.0484,-0.0514,-0.0458,-0.0451,-0.0429,-0.043,-0.0417,-0.0415,-0.0356,-0.0356,-0.0355,-0.0402,0,0,0,0,0,0,-0.0582,-0.058,-0.0584,-0.0562,-0.0557,-0.0549,-0.0535,-0.053,-0.0523,-0.0521,-0.0486,-0.048,-0.0458,-0.0433,-0.0426,-0.0426,-0.0413,-0.0356,-0.0356,-0.0355,-0.0401,-0.0404,-0.0406,0,0,0,0,0,-0.0583,-0.059,-0.0584,-0.0582,-0.0562,-0.0549,-0.0546,-0.053,-0.0523,-0.0523,-0.05,-0.0481,-0.0427,-0.0431,-0.0423,-0.0422,-0.0356,-0.0356,-0.0355,-0.04,-0.0403,-0.0406,0,0,0,0,0,0,-0.0602,-0.0588,-0.0581,-0.0582,-0.0569,-0.0546,-0.0545,-0.0533,-0.0515,-0.0514,-0.0481,-0.0473,-0.0454,-0.043,-0.0435,-0.0402,-0.0388,-0.0386,-0.0424,-0.0427,-0.043,-0.0438,-0.0411,0,0,0,0,0,-0.0609,-0.0611,-0.0592,-0.0593,-0.0588,-0.0567,-0.056,-0.055,-0.053,-0.0523,-0.0498,-0.047,-0.0447,-0.0432,-0.0409,-0.039,-0.0359,-0.0383,-0.0385,-0.0388,-0.0389,-0.0345,-0.0344,-0.0355,-0.0355,-0.0355,0,0,-0.0616,-0.0609,-0.061,-0.0598,-0.0586,-0.0587,-0.0563,-0.0556,-0.0555,-0.0517,-0.0507,-0.0481,-0.0445,-0.0427,-0.0416,-0.0407,-0.0369,-0.0388,-0.039,-0.039,-0.0345,-0.0344,-0.0343,-0.0355,-0.0355,-0.0355,0,0,-0.0636,-0.0626,-0.0637,-0.0629,-0.0617,-0.0603,-0.0603,-0.0581,-0.057,-0.0556,-0.0529,-0.0503,-0.0468,-0.0442,-0.0424,-0.0426,-0.0388,-0.0418,-0.0435,-0.0393,-0.0392,-0.0391,-0.0354,-0.0349,-0.0416,-0.0416,-0.0416,0,-0.0648,-0.0659,-0.0637,-0.0646,-0.0645,-0.0613,-0.0625,-0.0607,-0.0581,-0.057,-0.056,-0.0503,-0.0475,-0.0446,-0.0449,-0.0432,-0.0404,-0.0429,-0.0398,-0.0396,-0.0393,-0.0356,-0.035,-0.0419,-0.0418,-0.0418,-0.0418,0,-0.0678,-0.0686,-0.0691,-0.0693,-0.0687,-0.0691,-0.0665,-0.0655,-0.0635,-0.0612,-0.0581,-0.0538,-0.0504,-0.049,-0.0471,-0.0441,-0.0425,-0.041,-0.0392,-0.0395,-0.0355,-0.0348,-0.0422,-0.0421,-0.042,-0.042,0,0,-0.0707,-0.0713,-0.0715,-0.0729,-0.0714,-0.0716,-0.0707,-0.0689,-0.0683,-0.0644,-0.0628,-0.0582,-0.0552,-0.0529,-0.0494,-0.0456,-0.0418,-0.0431,-0.0428,-0.04,-0.0327,-0.0301,-0.029,-0.0398,-0.0397,-0.0396,-0.0307,0,-0.074,-0.0774,-0.0762,-0.079,-0.0806,-0.0775,-0.077,-0.0746,-0.0716,-0.0689,-0.0629,-0.0601,-0.0568,-0.0552,-0.0508,-0.044,-0.0401,-0.0444,-0.0323,-0.032,-0.03,-0.0281,-0.0288,-0.0207,-0.03,-0.0298,-0.0298,0,-0.0778,-0.0796,-0.0833,-0.0846,-0.0848,-0.0855,-0.0842,-0.0833,-0.0777,-0.0751,-0.0702,-0.0653,-0.0589,-0.0563,-0.0444,-0.0474,-0.0408,-0.0352,-0.0347,-0.0301,-0.0279,-0.0217,-0.019,-0.0285,-0.0286,-0.0287,-0.0288,0,-0.0823,-0.0847,-0.0882,-0.0887,-0.0891,-0.0897,-0.0891,-0.0853,-0.0846,-0.0787,-0.0769,-0.0683,-0.064,-0.0544,-0.0426,-0.0436,-0.0289,-0.0287,-0.02,-0.0197,-0.0167,-0.0164,-0.0204,-0.0205,-0.0205,-0.0205,-0.0205,0,-0.0871,-0.0897,-0.0908,-0.093,-0.0966,-0.0944,-0.0963,-0.0941,-0.0902,-0.0894,-0.0806,-0.0774,-0.0633,-0.0531,-0.0429,-0.0284,-0.0287,-0.0196,-0.0168,-0.0184,-0.0183,-0.0223,-0.0227,-0.0202,-0.0202,-0.0203,-0.0204,0,-0.0922,-0.0926,-0.0971,-0.0986,-0.0994,-0.102,-0.1025,-0.1033,-0.0983,-0.0967,-0.095,-0.0835,-0.0694,-0.0541,-0.0373,-0.0289,-0.0154,-0.0104,-0.0132,-0.011,-0.0094,-0.0101,-0.0005,-0.0003,-0.0002,-0.0001,0.0,0,-0.0952,-0.098,-0.1024,-0.1056,-0.1068,-0.1097,-0.1116,-0.1083,-0.1086,-0.1006,-0.1002,-0.0859,-0.0763,-0.0493,-0.0302,-0.0102,-0.0099,-0.0,-0.0021,-0.0089,-0.0071,-0.0081,-0.0089,0.0,0.0001,0.0002,0.0003,0,-0.1008,-0.1022,-0.1059,-0.113,-0.1167,-0.1206,-0.1224,-0.1239,-0.119,-0.1154,-0.1081,-0.0995,-0.0723,-0.0491,-0.0216,-0.0102,-0.0032,0.0021,-0.0022,-0.0055,-0.0077,-0.0063,-0.0073,0.001,0.0009,0.0008,0.0008,0.0008,-0.1044,-0.1088,-0.1139,-0.1204,-0.1254,-0.1305,-0.1343,-0.1316,-0.1309,-0.1217,-0.1139,-0.0957,-0.0736,-0.0335,-0.0136,0.0062,0.0026,0.0081,0.0077,0.0071,0.0051,0.0031,0.0135,0.0135,0.0135,0.0135,0.0135,0,-0.1076,-0.1138,-0.1208,-0.1288,-0.1342,-0.1362,-0.1409,-0.1385,-0.1355,-0.1223,-0.1108,-0.0828,-0.0564,-0.0309,-0.0009,0.014,0.0131,0.019,0.0144,0.0136,0.0128,0.0108,0.021,0.0211,0.0211,0.0212,0,0,-0.1097,-0.1168,-0.1208,-0.1325,-0.1395,-0.1443,-0.1473,-0.141,-0.1307,-0.1151,-0.0998,-0.0817,-0.0551,-0.0309,-0.0102,0.0066,0.0062,0.0091,0.0011,-0.0078,-0.0086,0.0043,-0.0,0,0,0,0,0]}],[{"header":{"parameterUnit":"m.s-1","parameterCategory":2,"la1":30.2991,"la2":30.254,"lo1":-89.0895,"lo2":-89.0444,"dy":0.0017,"dx":0.0017,"nx":28,"ny":28,"refTime":"2025-12-14T03:00:00:Z","depth":"4","parameterNumber":2,"parameterNumberName":"U-component_of_CURRENTS"},"data":[0,0,0,0,0,0,0,0,0,0,0,0,0,0,0,0,0,0,0,0,0,0,0,0,0,0,0,0,0,0,0,0,0,0,0,0,0,0,0,0,0,0,0,0,0,0,0,0,0,0,0,0,0,0,0,0,0,0,-0.1771,-0.1771,0,-0.1808,-0.1809,-0.1809,-0.1842,-0.1843,-0.1843,-0.1844,-0.1879,-0.1879,-0.188,0,0,0,0,0,0,0,0,0,0,0,0,0,-0.1724,-0.1724,-0.1771,-0.1771,-0.1772,-0.1808,-0.1809,-0.1809,-0.1842,-0.1843,-0.1843,-0.1844,-0.1879,-0.1879,-0.188,0,0,0,0,0,0,0,0,0,0,0,0,0,-0.1749,-0.1724,-0.1771,-0.1794,-0.1797,-0.1808,-0.1809,-0.1809,-0.1842,-0.1843,-0.1843,-0.1844,-0.1879,-0.1879,-0.188,-0.1868,0,0,-0.1882,-0.1882,0,0,0,0,0,0,0,0,-0.1748,-0.1751,-0.179,-0.1792,-0.1795,-0.1823,-0.1805,-0.1829,-0.1842,-0.1823,-0.1844,-0.1845,-0.186,-0.1863,-0.1866,-0.1869,-0.1871,-0.1882,-0.1882,-0.1883,-0.1883,0,0,0,0,0,0,0,-0.1746,-0.1749,-0.1784,-0.1791,-0.1794,-0.1802,-0.1806,-0.181,-0.1835,-0.1825,-0.1828,-0.1834,-0.1862,-0.1865,-0.1867,-0.1871,-0.1882,-0.1882,-0.1883,-0.1883,-0.1943,-0.1944,0,0,0,0,0,0,-0.1744,-0.1748,-0.1783,-0.1785,-0.1775,-0.1802,-0.1807,-0.1812,-0.1835,-0.184,-0.1833,-0.1836,-0.1863,-0.1866,-0.1868,-0.1925,-0.1883,-0.1883,-0.1884,-0.1942,-0.1943,-0.1945,0,0,0,0,0,0,-0.1743,-0.1747,-0.1781,-0.1769,-0.1774,-0.1802,-0.1807,-0.1812,-0.1845,-0.1842,-0.1847,-0.1865,-0.1864,-0.1867,-0.1899,-0.1924,-0.1883,-0.1884,-0.1941,-0.1942,-0.1944,-0.1994,0,0,0,0,0,0,-0.1741,-0.1746,-0.1762,-0.1769,-0.1775,-0.1806,-0.1807,-0.1812,-0.1847,-0.1851,-0.1871,-0.1873,-0.1865,-0.1898,-0.19,-0.1924,-0.1885,-0.1939,-0.1941,-0.1944,-0.1991,-0.1997,-0.2003,0,0,0,0,0,-0.1739,-0.1749,-0.1762,-0.1768,-0.1791,-0.1807,-0.1811,-0.1832,-0.1848,-0.1865,-0.1883,-0.1874,-0.1914,-0.19,-0.1901,-0.1926,-0.1938,-0.1941,-0.1943,-0.1988,-0.1996,-0.2003,0,0,0,0,0,0,-0.1733,-0.1753,-0.1768,-0.1784,-0.1805,-0.1813,-0.1832,-0.1849,-0.1876,-0.1889,-0.1889,-0.1892,-0.1929,-0.1922,-0.1907,-0.1951,-0.1925,-0.1928,-0.1958,-0.1965,-0.1971,-0.1964,-0.1885,0,0,0,0,0,-0.174,-0.1757,-0.1776,-0.1792,-0.1805,-0.1827,-0.1842,-0.1858,-0.1877,-0.1891,-0.1907,-0.1923,-0.1935,-0.1948,-0.1955,-0.198,-0.1961,-0.1997,-0.2003,-0.2008,-0.2004,-0.2006,-0.2012,-0.1954,-0.1954,-0.1954,0,0,-0.1744,-0.1757,-0.1769,-0.1794,-0.1812,-0.1834,-0.1838,-0.1868,-0.1895,-0.1889,-0.1938,-0.1946,-0.1947,-0.1975,-0.199,-0.1977,-0.2015,-0.2012,-0.2016,-0.2009,-0.201,-0.2015,-0.202,-0.1955,-0.1955,-0.1955,0,0,-0.1748,-0.1772,-0.1788,-0.1809,-0.1843,-0.1856,-0.1873,-0.1903,-0.1928,-0.1967,-0.1971,-0.1998,-0.2021,-0.2025,-0.2028,-0.2072,-0.2046,-0.208,-0.2106,-0.2109,-0.2113,-0.2117,-0.2095,-0.2096,-0.2084,-0.2084,-0.2084,0,-0.1755,-0.1774,-0.1795,-0.1815,-0.1838,-0.1871,-0.1895,-0.1922,-0.1962,-0.1981,-0.1991,-0.2034,-0.2042,-0.2066,-0.2083,-0.2086,-0.2073,-0.2078,-0.2115,-0.2119,-0.2121,-0.2098,-0.2099,-0.2087,-0.2086,-0.2086,-0.2086,0,-0.1762,-0.1792,-0.1803,-0.1842,-0.1869,-0.1896,-0.1933,-0.1972,-0.2009,-0.203,-0.2077,-0.2089,-0.211,-0.2123,-0.2117,-0.2146,-0.2125,-0.2122,-0.2094,-0.213,-0.2103,-0.2103,-0.209,-0.2089,-0.2089,-0.2088,0,0,-0.1732,-0.1797,-0.1804,-0.1832,-0.1888,-0.1906,-0.1959,-0.2004,-0.2036,-0.2084,-0.2118,-0.2152,-0.2163,-0.2166,-0.217,-0.2177,-0.219,-0.2163,-0.2162,-0.2135,-0.2179,-0.2054,-0.2042,-0.2196,-0.2196,-0.2197,-0.215,0,-0.1733,-0.1774,-0.181,-0.186,-0.1884,-0.1938,-0.198,-0.2029,-0.2071,-0.2112,-0.2141,-0.2171,-0.2178,-0.2191,-0.2204,-0.2194,-0.2193,-0.2202,-0.2152,-0.215,-0.2031,-0.2039,-0.2198,-0.2149,-0.2149,-0.2149,-0.2149,0,-0.1718,-0.1752,-0.1799,-0.1869,-0.1886,-0.1926,-0.1995,-0.2036,-0.21,-0.2133,-0.2173,-0.219,-0.2219,-0.2216,-0.2219,-0.2225,-0.2205,-0.2194,-0.2192,-0.2055,-0.2025,-0.2108,-0.2148,-0.2148,-0.2148,-0.2148,-0.2149,0,-0.1665,-0.1739,-0.178,-0.1804,-0.1889,-0.1927,-0.1974,-0.2043,-0.2076,-0.2142,-0.2166,-0.2206,-0.2222,-0.222,-0.2208,-0.2215,-0.2193,-0.2196,-0.2061,-0.2052,-0.2157,-0.2153,-0.2186,-0.2186,-0.2186,-0.2186,-0.2186,0,-0.1629,-0.1664,-0.1765,-0.1783,-0.1834,-0.1903,-0.1956,-0.201,-0.2077,-0.2098,-0.2169,-0.2177,-0.2225,-0.2221,-0.2207,-0.2123,-0.2191,-0.2053,-0.2029,-0.2178,-0.2178,-0.2156,-0.2153,-0.2184,-0.2185,-0.2185,-0.2185,0,-0.1554,-0.1623,-0.1674,-0.1775,-0.1809,-0.1843,-0.1939,-0.1962,-0.2045,-0.2073,-0.2092,-0.2158,-0.2142,-0.2164,-0.215,-0.2097,-0.2046,-0.2,-0.2143,-0.2131,-0.1901,-0.1902,-0.1832,-0.1828,-0.1824,-0.182,-0.1817,0,-0.1514,-0.1536,-0.1651,-0.1678,-0.1727,-0.1794,-0.1828,-0.193,-0.1947,-0.2035,-0.2023,-0.2054,-0.2076,-0.1942,-0.1999,-0.1946,-0.1932,-0.1895,-0.1908,-0.188,-0.1865,-0.1872,-0.1878,-0.1811,-0.181,-0.1809,-0.1808,0,-0.1434,-0.1493,-0.1535,-0.1591,-0.164,-0.1681,-0.1737,-0.1738,-0.1832,-0.1932,-0.1883,-0.1868,-0.1848,-0.1836,-0.1807,-0.178,-0.1915,-0.1852,-0.186,-0.1872,-0.1853,-0.1844,-0.1854,-0.1793,-0.1795,-0.1797,-0.1798,0,-0.1374,-0.1386,-0.1448,-0.1479,-0.1538,-0.1533,-0.1586,-0.1589,-0.162,-0.1719,-0.1699,-0.174,-0.181,-0.1748,-0.1727,-0.1685,-0.1665,-0.1619,-0.1639,-0.1656,-0.1625,-0.1576,-0.1397,0,0,0,0,0,-0.1303,-0.1298,-0.1324,-0.135,-0.14,-0.1426,-0.1502,-0.1555,-0.1653,-0.1563,-0.1622,-0.1591,-0.1556,-0.1593,-0.151,-0.1668,-0.1685,-0.157,-0.1646,-0.1715,-0.1731,-0.1715,0,0,0,0,0,0,-0.1253,-0.1279,-0.1281,-0.1227,-0.1215,-0.1248,-0.1288,-0.1358,-0.1315,-0.1423,-0.1402,-0.1494,-0.1479,-0.1561,-0.1473,-0.1485,-0.1502,-0.1613,-0.1609,-0.1705,-0.172,-0.1733,-0.1722,0,0,0,0,0]},{"header":{"parameterUnit":"m.s-1","parameterCategory":2,"la1":30.2991,"la2":30.254,"lo1":-89.0895,"lo2":-89.0444,"dy":0.0017,"dx":0.0017,"nx":28,"ny":28,"refTime":"2025-12-14T03:00:00:Z","depth":"4","parameterNumber":3,"parameterNumberName":"V-component_of_CURRENTS"},"data":[0,0,0,0,0,0,0,0,0,0,0,0,0,0,0,0,0,0,0,0,0,0,0,0,0,0,0,0,0,0,0,0,0,0,0,0,0,0,0,0,0,0,0,0,0,0,0,0,0,0,0,0,0,0,0,0,0,0,-0.0193,-0.0193,0,-0.0163,-0.0163,-0.0163,-0.0149,-0.0149,-0.0149,-0.0149,-0.0094,-0.0092,-0.0091,0,0,0,0,0,0,0,0,0,0,0,0,0,-0.0207,-0.0207,-0.0193,-0.0193,-0.0193,-0.0163,-0.0163,-0.0163,-0.0149,-0.0149,-0.0149,-0.0149,-0.0094,-0.0093,-0.0091,0,0,0,0,0,0,0,0,0,0,0,0,0,-0.0191,-0.0207,-0.0193,-0.0182,-0.0181,-0.0164,-0.0163,-0.0162,-0.0149,-0.0149,-0.0149,-0.0149,-0.0095,-0.0093,-0.0091,-0.0075,0,0,-0.0084,-0.0083,0,0,0,0,0,0,0,0,-0.0192,-0.0191,-0.0184,-0.0183,-0.0182,-0.016,-0.0148,-0.0132,-0.0149,-0.0161,-0.0149,-0.0149,-0.0114,-0.011,-0.0104,-0.0073,-0.007,-0.0084,-0.0082,-0.0081,-0.0081,0,0,0,0,0,0,0,-0.0193,-0.0192,-0.0181,-0.0184,-0.0182,-0.0168,-0.0166,-0.0145,-0.0137,-0.016,-0.0159,-0.0156,-0.0113,-0.0107,-0.0103,-0.007,-0.0084,-0.0082,-0.008,-0.0079,-0.0038,-0.0038,0,0,0,0,0,0,-0.0199,-0.0193,-0.0182,-0.018,-0.0187,-0.0168,-0.0166,-0.0167,-0.0137,-0.0133,-0.0156,-0.0155,-0.011,-0.0106,-0.0101,-0.0104,-0.0081,-0.0079,-0.0078,-0.0038,-0.0038,-0.0038,0,0,0,0,0,0,-0.02,-0.0199,-0.0183,-0.0186,-0.0183,-0.0168,-0.0169,-0.0166,-0.0165,-0.0135,-0.013,-0.0158,-0.011,-0.0104,-0.009,-0.0101,-0.0078,-0.0076,-0.0037,-0.0038,-0.0038,-0.0095,0,0,0,0,0,0,-0.02,-0.0199,-0.0205,-0.0186,-0.0183,-0.0181,-0.0169,-0.0166,-0.0163,-0.0162,-0.0135,-0.013,-0.011,-0.0094,-0.0088,-0.0097,-0.0074,-0.0037,-0.0038,-0.0038,-0.0093,-0.0098,-0.0101,0,0,0,0,0,-0.0201,-0.0208,-0.0206,-0.0204,-0.0191,-0.0182,-0.0179,-0.0168,-0.0163,-0.0166,-0.0149,-0.0131,-0.0093,-0.0092,-0.0085,-0.0094,-0.0037,-0.0037,-0.0038,-0.0091,-0.0097,-0.0101,0,0,0,0,0,0,-0.0215,-0.0206,-0.0204,-0.0208,-0.02,-0.018,-0.0181,-0.0172,-0.0161,-0.0162,-0.0133,-0.0127,-0.0119,-0.0097,-0.0097,-0.0083,-0.0062,-0.0061,-0.0105,-0.011,-0.0114,-0.0124,-0.0072,0,0,0,0,0,-0.0221,-0.0227,-0.0214,-0.0218,-0.0216,-0.02,-0.0196,-0.0189,-0.0175,-0.017,-0.0152,-0.0131,-0.0115,-0.0105,-0.0087,-0.0077,-0.0055,-0.0078,-0.0082,-0.0086,-0.0089,-0.0064,-0.0066,-0.004,-0.004,-0.004,0,0,-0.0228,-0.0225,-0.0228,-0.0222,-0.0215,-0.022,-0.0198,-0.0197,-0.0202,-0.0165,-0.0167,-0.0145,-0.0116,-0.0109,-0.0103,-0.0093,-0.0082,-0.0087,-0.009,-0.0091,-0.0064,-0.0067,-0.0069,-0.0041,-0.0041,-0.004,0,0,-0.0246,-0.0242,-0.0254,-0.0252,-0.0247,-0.0237,-0.024,-0.0226,-0.0221,-0.0217,-0.0194,-0.0179,-0.0154,-0.0137,-0.0124,-0.0137,-0.0106,-0.0131,-0.016,-0.0135,-0.0137,-0.0139,-0.012,-0.012,-0.0132,-0.0133,-0.0133,0,-0.0256,-0.0269,-0.0256,-0.0267,-0.0271,-0.0249,-0.0265,-0.0256,-0.024,-0.0238,-0.0227,-0.0193,-0.0168,-0.0158,-0.0164,-0.0148,-0.013,-0.0146,-0.0142,-0.0143,-0.0143,-0.0124,-0.0122,-0.0135,-0.0135,-0.0135,-0.0135,0,-0.0282,-0.0295,-0.0302,-0.0313,-0.0314,-0.0322,-0.0311,-0.0311,-0.0302,-0.029,-0.028,-0.0245,-0.0225,-0.0214,-0.0193,-0.0186,-0.0172,-0.0152,-0.0132,-0.0149,-0.0127,-0.0125,-0.0139,-0.0138,-0.0138,-0.0137,0,0,-0.03,-0.0319,-0.0322,-0.0341,-0.0341,-0.0348,-0.0356,-0.0357,-0.0366,-0.0343,-0.0348,-0.0315,-0.0292,-0.0276,-0.0245,-0.0222,-0.021,-0.0193,-0.019,-0.018,-0.0161,-0.0154,-0.015,-0.019,-0.019,-0.019,-0.0147,0,-0.0327,-0.0365,-0.0364,-0.0401,-0.042,-0.0409,-0.0421,-0.0418,-0.0406,-0.0403,-0.0363,-0.0354,-0.0317,-0.0309,-0.0281,-0.0227,-0.0205,-0.0224,-0.014,-0.0138,-0.0134,-0.0147,-0.0189,-0.0145,-0.0144,-0.0144,-0.0143,0,-0.0354,-0.0378,-0.0421,-0.0454,-0.0461,-0.048,-0.0498,-0.0504,-0.0487,-0.0476,-0.0453,-0.042,-0.0385,-0.035,-0.0271,-0.0285,-0.0232,-0.0187,-0.0183,-0.0155,-0.0126,-0.012,-0.0138,-0.0139,-0.0139,-0.0139,-0.014,0,-0.0378,-0.0419,-0.0459,-0.047,-0.0499,-0.0519,-0.0532,-0.0528,-0.054,-0.0521,-0.0522,-0.0472,-0.0448,-0.0376,-0.0282,-0.0278,-0.0191,-0.0172,-0.0115,-0.0114,-0.0108,-0.0106,-0.0119,-0.0119,-0.0119,-0.0119,-0.0119,0,-0.0405,-0.0439,-0.0478,-0.0501,-0.0553,-0.0556,-0.0598,-0.0599,-0.06,-0.0616,-0.0563,-0.0557,-0.0452,-0.0388,-0.0301,-0.0202,-0.0204,-0.0125,-0.0103,-0.0133,-0.0135,-0.0106,-0.0105,-0.0117,-0.0118,-0.0118,-0.0118,0,-0.0422,-0.0447,-0.05,-0.0547,-0.0567,-0.0603,-0.065,-0.0675,-0.0666,-0.0683,-0.0681,-0.0621,-0.0535,-0.0425,-0.0303,-0.0231,-0.0134,-0.0097,-0.0145,-0.0125,-0.0071,-0.0074,-0.0039,-0.0038,-0.0038,-0.0037,-0.0037,0,-0.0431,-0.0461,-0.0537,-0.0578,-0.0604,-0.0658,-0.0696,-0.0709,-0.0729,-0.0721,-0.0729,-0.0659,-0.0603,-0.0427,-0.031,-0.0149,-0.012,-0.0073,-0.0067,-0.0081,-0.0063,-0.0066,-0.007,-0.0036,-0.0036,-0.0036,-0.0036,0,-0.0449,-0.048,-0.0525,-0.0611,-0.0668,-0.0729,-0.0778,-0.0798,-0.0805,-0.0802,-0.0763,-0.0672,-0.0573,-0.0431,-0.0302,-0.0186,-0.0107,-0.0067,-0.0067,-0.0061,-0.0077,-0.0061,-0.0064,-0.0034,-0.0034,-0.0034,-0.0035,0,-0.0459,-0.0499,-0.0564,-0.0635,-0.0712,-0.0775,-0.0802,-0.0821,-0.0835,-0.0814,-0.0803,-0.0691,-0.0625,-0.0451,-0.0336,-0.0217,-0.0186,-0.0146,-0.0141,-0.0142,-0.0179,-0.0214,-0.02,0,0,0,0,0,-0.0463,-0.0512,-0.0585,-0.0667,-0.0743,-0.0785,-0.0846,-0.0861,-0.0868,-0.0843,-0.0819,-0.0723,-0.0547,-0.0475,-0.0354,-0.0328,-0.0169,-0.0183,-0.0122,-0.0024,-0.0026,-0.0051,0,0,0,0,0,0,-0.047,-0.0539,-0.058,-0.0672,-0.073,-0.0811,-0.085,-0.086,-0.0838,-0.0827,-0.0733,-0.0687,-0.0515,-0.0608,-0.0347,-0.0314,-0.0258,-0.0102,-0.0099,-0.0023,-0.0025,-0.0027,-0.0053,0,0,0,0,0]}]]